Time,TemperatureF,DewpointF,PressureIn,WindDirection,WindDirectionDegrees,WindSpeedMPH,WindSpeedGustMPH,Humidity,HourlyPrecipIn,Conditions,Clouds,dailyrainin,SoftwareType,DateUTC
2013-06-13 00:01:00,66.0,64.0,29.72,NNE,20,2.0,-999.0,92,-99.99,,,-99.99,,2013-06-13 04:01:00,
2013-06-13 00:12:00,65.0,63.0,29.72,NW,312,1.0,-999.0,93,-99.99,,,-99.99,,2013-06-13 04:12:00,
2013-06-13 00:22:00,65.0,63.0,29.75,NW,313,0.0,-999.0,93,-99.99,,,-99.99,,2013-06-13 04:22:00,
2013-06-13 00:32:00,65.0,63.0,29.75,NE,37,1.0,-999.0,93,-99.99,,,-99.99,,2013-06-13 04:32:00,
2013-06-13 00:43:00,65.0,63.0,29.68,East,83,3.0,-999.0,94,-99.99,,,-99.99,,2013-06-13 04:43:00,
2013-06-13 00:53:00,65.0,63.0,29.64,NNE,24,1.0,-999.0,94,-99.99,,,-99.99,,2013-06-13 04:53:00,
2013-06-13 01:02:00,65.0,63.0,29.64,NNE,24,1.0,-999.0,94,-99.99,,,-99.99,,2013-06-13 05:02:00,
2013-06-13 01:12:00,65.0,64.0,29.66,NNE,23,1.0,-999.0,95,-99.99,,,-99.99,,2013-06-13 05:12:00,
2013-06-13 01:24:00,64.0,63.0,29.71,West,278,1.0,-999.0,95,-99.99,,,-99.99,,2013-06-13 05:24:00,
2013-06-13 01:33:00,64.0,63.0,29.71,West,278,1.0,-999.0,95,-99.99,,,-99.99,,2013-06-13 05:33:00,
2013-06-13 01:43:00,64.0,63.0,29.73,SW,220,3.0,-999.0,95,-99.99,,,-99.99,,2013-06-13 05:43:00,
2013-06-13 01:53:00,64.0,63.0,29.75,SSW,213,1.0,-999.0,95,-99.99,,,-99.99,,2013-06-13 05:53:00,
2013-06-13 02:02:00,64.0,63.0,29.67,South,189,0.0,-999.0,95,-99.99,,,-99.99,,2013-06-13 06:02:00,
2013-06-13 02:11:00,64.0,63.0,29.67,South,189,0.0,-999.0,96,-99.99,,,-99.99,,2013-06-13 06:11:00,
2013-06-13 02:22:00,64.0,63.0,29.69,South,188,1.0,-999.0,96,-99.99,,,-99.99,,2013-06-13 06:22:00,
2013-06-13 02:33:00,64.0,63.0,29.70,South,188,1.0,-999.0,96,-99.99,,,-99.99,,2013-06-13 06:33:00,
2013-06-13 02:44:00,64.0,63.0,29.70,South,186,0.0,-999.0,96,-99.99,,,-99.99,,2013-06-13 06:44:00,
2013-06-13 02:52:00,64.0,63.0,29.63,East,80,1.0,-999.0,96,-99.99,,,-99.99,,2013-06-13 06:52:00,
2013-06-13 03:01:00,64.0,63.0,29.56,WSW,258,3.0,-999.0,97,-99.99,,,-99.99,,2013-06-13 07:01:00,
2013-06-13 03:12:00,64.0,63.0,29.56,SW,224,3.0,-999.0,97,-99.99,,,-99.99,,2013-06-13 07:12:00,
2013-06-13 03:22:00,64.0,63.0,29.65,SW,223,0.0,-999.0,97,-99.99,,,-99.99,,2013-06-13 07:22:00,
2013-06-13 03:33:00,64.0,63.0,29.65,SW,223,0.0,-999.0,97,-99.99,,,-99.99,,2013-06-13 07:33:00,
2013-06-13 03:42:00,64.0,63.0,29.65,SW,224,1.0,-999.0,97,-99.99,,,-99.99,,2013-06-13 07:42:00,
2013-06-13 03:52:00,64.0,63.0,29.66,SW,224,1.0,-999.0,97,-99.99,,,-99.99,,2013-06-13 07:52:00,
2013-06-13 04:01:00,64.0,63.0,29.68,SW,224,0.0,-999.0,97,-99.99,,,-99.99,,2013-06-13 08:01:00,
2013-06-13 04:11:00,64.0,63.0,29.68,SW,223,0.0,-999.0,97,-99.99,,,-99.99,,2013-06-13 08:11:00,
2013-06-13 04:22:00,64.0,63.0,29.69,SW,223,0.0,-999.0,97,-99.99,,,-99.99,,2013-06-13 08:22:00,
2013-06-13 04:32:00,64.0,63.0,29.70,SW,223,0.0,-999.0,97,-99.99,,,-99.99,,2013-06-13 08:32:00,
2013-06-13 04:43:00,64.0,63.0,29.70,SW,223,0.0,-999.0,97,-99.99,,,-99.99,,2013-06-13 08:43:00,
2013-06-13 04:52:00,64.0,63.0,29.71,SW,224,0.0,-999.0,97,-99.99,,,-99.99,,2013-06-13 08:52:00,
2013-06-13 05:02:00,64.0,63.0,29.72,SW,224,0.0,-999.0,97,-99.99,,,-99.99,,2013-06-13 09:02:00,
2013-06-13 05:12:00,64.0,63.0,29.72,SW,224,0.0,-999.0,97,-99.99,,,-99.99,,2013-06-13 09:12:00,
2013-06-13 05:22:00,64.0,63.0,29.72,SW,224,0.0,-999.0,97,-99.99,,,-99.99,,2013-06-13 09:22:00,
2013-06-13 05:32:00,63.0,62.0,29.73,SW,224,0.0,-999.0,97,-99.99,,,-99.99,,2013-06-13 09:32:00,
2013-06-13 05:42:00,63.0,62.0,29.73,SW,224,0.0,-999.0,97,-99.99,,,-99.99,,2013-06-13 09:42:00,
2013-06-13 05:52:00,63.0,62.0,29.74,SW,224,0.0,-999.0,97,-99.99,,,-99.99,,2013-06-13 09:52:00,
2013-06-13 06:01:00,63.0,62.0,29.74,SW,224,0.0,-999.0,97,-99.99,,,-99.99,,2013-06-13 10:01:00,
2013-06-13 06:11:00,63.0,62.0,29.74,SW,224,0.0,-999.0,97,-99.99,,,-99.99,,2013-06-13 10:11:00,
2013-06-13 06:22:00,63.0,62.0,29.74,SW,224,0.0,-999.0,97,-99.99,,,-99.99,,2013-06-13 10:22:00,
2013-06-13 06:33:00,63.0,62.0,29.74,SW,224,0.0,-999.0,97,-99.99,,,-99.99,,2013-06-13 10:33:00,
2013-06-13 06:43:00,63.0,62.0,29.74,SW,224,0.0,-999.0,97,-99.99,,,-99.99,,2013-06-13 10:43:00,
2013-06-13 06:53:00,63.0,62.0,29.75,SW,224,0.0,-999.0,97,-99.99,,,-99.99,,2013-06-13 10:53:00,
2013-06-13 07:02:00,63.0,62.0,29.76,SW,224,0.0,-999.0,98,-99.99,,,-99.99,,2013-06-13 11:02:00,
2013-06-13 07:11:00,63.0,62.0,29.76,SW,224,0.0,-999.0,98,-99.99,,,-99.99,,2013-06-13 11:11:00,
2013-06-13 07:23:00,63.0,62.0,29.77,SW,224,0.0,-999.0,98,-99.99,,,-99.99,,2013-06-13 11:23:00,
2013-06-13 07:32:00,63.0,62.0,29.79,WSW,250,0.0,-999.0,97,-99.99,,,-99.99,,2013-06-13 11:32:00,
2013-06-13 07:42:00,63.0,62.0,29.79,NW,326,1.0,-999.0,97,-99.99,,,-99.99,,2013-06-13 11:42:00,
2013-06-13 07:52:00,63.0,62.0,29.79,NW,326,0.0,-999.0,97,-99.99,,,-99.99,,2013-06-13 11:52:00,
2013-06-13 08:01:00,62.0,61.0,29.79,NW,326,0.0,-999.0,97,-99.99,,,-99.99,,2013-06-13 12:01:00,
2013-06-13 08:12:00,63.0,62.0,29.78,West,280,0.0,-999.0,97,-99.99,,,-99.99,,2013-06-13 12:12:00,
2013-06-13 08:22:00,63.0,62.0,29.80,North,1,1.0,-999.0,97,-99.99,,,-99.99,,2013-06-13 12:22:00,
2013-06-13 08:35:00,64.0,63.0,29.81,NNE,17,1.0,-999.0,97,-99.99,,,-99.99,,2013-06-13 12:35:00,
2013-06-13 08:43:00,64.0,63.0,29.81,NNE,23,1.0,-999.0,95,-99.99,,,-99.99,,2013-06-13 12:43:00,
2013-06-13 08:52:00,64.0,63.0,29.83,NNE,23,0.0,-999.0,95,-99.99,,,-99.99,,2013-06-13 12:52:00,
2013-06-13 09:01:00,66.0,64.0,29.83,NNE,23,0.0,-999.0,94,-99.99,,,-99.99,,2013-06-13 13:01:00,
2013-06-13 09:11:00,66.0,63.0,29.83,North,6,1.0,-999.0,90,-99.99,,,-99.99,,2013-06-13 13:11:00,
2013-06-13 09:22:00,66.0,60.0,29.83,NW,320,1.0,-999.0,82,-99.99,,,-99.99,,2013-06-13 13:22:00,
2013-06-13 09:32:00,67.0,60.0,29.83,NNW,336,2.0,-999.0,79,-99.99,,,-99.99,,2013-06-13 13:32:00,
2013-06-13 09:43:00,68.0,60.0,29.85,NE,34,1.0,-999.0,75,-99.99,,,-99.99,,2013-06-13 13:43:00,
2013-06-13 09:53:00,68.0,59.0,29.86,NNE,21,1.0,-999.0,74,-99.99,,,-99.99,,2013-06-13 13:53:00,
2013-06-13 10:02:00,68.0,59.0,29.86,NNE,24,0.0,-999.0,73,-99.99,,,-99.99,,2013-06-13 14:02:00,
2013-06-13 10:11:00,69.0,59.0,29.86,NNE,27,1.0,-999.0,70,-99.99,,,-99.99,,2013-06-13 14:11:00,
2013-06-13 10:22:00,69.0,59.0,29.87,NNE,20,0.0,-999.0,71,-99.99,,,-99.99,,2013-06-13 14:22:00,
2013-06-13 10:33:00,69.0,58.0,29.87,North,4,1.0,-999.0,68,-99.99,,,-99.99,,2013-06-13 14:33:00,
2013-06-13 10:43:00,69.0,58.0,29.88,North,359,0.0,-999.0,68,-99.99,,,-99.99,,2013-06-13 14:43:00,
2013-06-13 10:53:00,70.0,58.0,29.88,North,353,0.0,-999.0,66,-99.99,,,-99.99,,2013-06-13 14:53:00,
2013-06-13 11:02:00,70.0,58.0,29.88,South,184,1.0,-999.0,66,-99.99,,,-99.99,,2013-06-13 15:02:00,
2013-06-13 11:12:00,71.0,59.0,29.88,North,357,1.0,-999.0,67,-99.99,,,-99.99,,2013-06-13 15:12:00,
2013-06-13 11:22:00,71.0,59.0,29.87,NW,304,1.0,-999.0,66,-99.99,,,-99.99,,2013-06-13 15:22:00,
2013-06-13 11:33:00,71.0,59.0,29.88,North,357,1.0,-999.0,65,-99.99,,,-99.99,,2013-06-13 15:33:00,
2013-06-13 11:43:00,71.0,59.0,29.88,North,357,1.0,-999.0,65,-99.99,,,-99.99,,2013-06-13 15:43:00,
2013-06-13 11:53:00,71.0,58.0,29.88,WNW,288,1.0,-999.0,64,-99.99,,,-99.99,,2013-06-13 15:53:00,
2013-06-13 12:02:00,71.0,56.0,29.89,WNW,292,2.0,-999.0,60,-99.99,,,-99.99,,2013-06-13 16:02:00,
2013-06-13 12:12:00,72.0,59.0,29.89,WNW,299,1.0,-999.0,63,-99.99,,,-99.99,,2013-06-13 16:12:00,
2013-06-13 12:22:00,72.0,54.0,29.90,ENE,68,2.0,-999.0,54,-99.99,,,-99.99,,2013-06-13 16:22:00,
2013-06-13 12:33:00,72.0,56.0,29.90,ESE,109,1.0,-999.0,58,-99.99,,,-99.99,,2013-06-13 16:33:00,
2013-06-13 12:43:00,72.0,54.0,29.90,East,97,1.0,-999.0,54,-99.99,,,-99.99,,2013-06-13 16:43:00,
2013-06-13 12:53:00,73.0,55.0,29.91,NW,306,1.0,-999.0,53,-99.99,,,-99.99,,2013-06-13 16:53:00,
2013-06-13 13:02:00,73.0,56.0,29.91,North,10,2.0,-999.0,55,-99.99,,,-99.99,,2013-06-13 17:02:00,
2013-06-13 13:12:00,73.0,57.0,29.91,WNW,292,1.0,-999.0,58,-99.99,,,-99.99,,2013-06-13 17:12:00,
2013-06-13 13:24:00,73.0,57.0,29.91,NW,318,1.0,-999.0,58,-99.99,,,-99.99,,2013-06-13 17:24:00,
2013-06-13 13:33:00,72.0,56.0,29.91,SW,233,2.0,-999.0,58,-99.99,,,-99.99,,2013-06-13 17:33:00,
2013-06-13 13:43:00,72.0,56.0,29.92,West,280,1.0,-999.0,58,-99.99,,,-99.99,,2013-06-13 17:43:00,
2013-06-13 13:53:00,72.0,56.0,29.92,SSW,205,1.0,-999.0,58,-99.99,,,-99.99,,2013-06-13 17:53:00,
2013-06-13 14:02:00,72.0,56.0,29.92,North,359,2.0,-999.0,58,-99.99,,,-99.99,,2013-06-13 18:02:00,
2013-06-13 14:11:00,72.0,56.0,29.92,WNW,285,2.0,-999.0,58,-99.99,,,-99.99,,2013-06-13 18:11:00,
2013-06-13 14:22:00,72.0,56.0,29.93,NW,316,2.0,-999.0,57,-99.99,,,-99.99,,2013-06-13 18:22:00,
2013-06-13 14:33:00,72.0,55.0,29.93,North,360,3.0,-999.0,56,-99.99,,,-99.99,,2013-06-13 18:33:00,
2013-06-13 14:43:00,73.0,57.0,29.93,WNW,292,2.0,-999.0,58,-99.99,,,-99.99,,2013-06-13 18:43:00,
2013-06-13 14:52:00,73.0,57.0,29.94,WSW,241,2.0,-999.0,57,-99.99,,,-99.99,,2013-06-13 18:52:00,
2013-06-13 15:01:00,72.0,58.0,29.94,SW,219,2.0,-999.0,62,-99.99,,,-99.99,,2013-06-13 19:01:00,
2013-06-13 15:11:00,71.0,58.0,29.94,WNW,295,2.0,-999.0,64,-99.99,,,-99.99,,2013-06-13 19:11:00,
2013-06-13 15:22:00,71.0,56.0,29.95,WNW,298,2.0,-999.0,60,-99.99,,,-99.99,,2013-06-13 19:22:00,
2013-06-13 15:33:00,70.0,55.0,29.96,North,356,2.0,-999.0,60,-99.99,,,-99.99,,2013-06-13 19:33:00,
2013-06-13 15:43:00,70.0,55.0,29.96,SW,223,2.0,-999.0,60,-99.99,,,-99.99,,2013-06-13 19:43:00,
2013-06-13 15:53:00,70.0,56.0,29.97,NNW,335,2.0,-999.0,61,-99.99,,,-99.99,,2013-06-13 19:53:00,
2013-06-13 16:02:00,70.0,56.0,29.97,North,350,2.0,-999.0,61,-99.99,,,-99.99,,2013-06-13 20:02:00,
2013-06-13 16:11:00,69.0,55.0,29.97,WSW,253,2.0,-999.0,61,-99.99,,,-99.99,,2013-06-13 20:11:00,
2013-06-13 16:22:00,67.0,54.0,29.98,West,278,3.0,-999.0,62,-99.99,,,-99.99,,2013-06-13 20:22:00,
2013-06-13 16:33:00,67.0,54.0,29.99,WSW,237,3.0,-999.0,64,-99.99,,,-99.99,,2013-06-13 20:33:00,
2013-06-13 16:44:00,67.0,54.0,29.99,North,357,3.0,-999.0,64,-99.99,,,-99.99,,2013-06-13 20:44:00,
2013-06-13 16:53:00,66.0,54.0,29.99,SSE,158,2.0,-999.0,65,-99.99,,,-99.99,,2013-06-13 20:53:00,
2013-06-13 17:02:00,66.0,54.0,29.99,NW,313,2.0,-999.0,65,-99.99,,,-99.99,,2013-06-13 21:02:00,
2013-06-13 17:11:00,66.0,54.0,29.99,North,3,2.0,-999.0,65,-99.99,,,-99.99,,2013-06-13 21:11:00,
2013-06-13 17:22:00,66.0,54.0,29.99,NW,315,2.0,-999.0,66,-99.99,,,-99.99,,2013-06-13 21:22:00,
2013-06-13 17:34:00,66.0,54.0,30.00,NW,325,2.0,-999.0,66,-99.99,,,-99.99,,2013-06-13 21:34:00,
2013-06-13 17:43:00,66.0,54.0,30.00,North,352,2.0,-999.0,65,-99.99,,,-99.99,,2013-06-13 21:43:00,
2013-06-13 17:52:00,66.0,54.0,29.99,NNE,16,2.0,-999.0,66,-99.99,,,-99.99,,2013-06-13 21:52:00,
2013-06-13 18:02:00,66.0,54.0,29.99,ENE,58,2.0,-999.0,65,-99.99,,,-99.99,,2013-06-13 22:02:00,
2013-06-13 18:11:00,66.0,53.0,29.99,WNW,299,2.0,-999.0,63,-99.99,,,-99.99,,2013-06-13 22:11:00,
2013-06-13 18:22:00,66.0,53.0,29.99,NW,319,2.0,-999.0,64,-99.99,,,-99.99,,2013-06-13 22:22:00,
2013-06-13 18:33:00,66.0,53.0,29.99,NNW,335,1.0,-999.0,63,-99.99,,,-99.99,,2013-06-13 22:33:00,
2013-06-13 18:43:00,66.0,53.0,29.99,North,11,3.0,-999.0,63,-99.99,,,-99.99,,2013-06-13 22:43:00,
2013-06-13 18:52:00,66.0,53.0,29.99,East,90,3.0,-999.0,64,-99.99,,,-99.99,,2013-06-13 22:52:00,
2013-06-13 19:02:00,66.0,53.0,29.99,SSW,203,2.0,-999.0,63,-99.99,,,-99.99,,2013-06-13 23:02:00,
2013-06-13 19:11:00,66.0,53.0,29.99,NE,56,3.0,-999.0,64,-99.99,,,-99.99,,2013-06-13 23:11:00,
2013-06-13 19:22:00,66.0,53.0,29.98,NW,305,2.0,-999.0,63,-99.99,,,-99.99,,2013-06-13 23:22:00,
2013-06-13 19:32:00,66.0,53.0,29.98,NNW,342,2.0,-999.0,64,-99.99,,,-99.99,,2013-06-13 23:32:00,
2013-06-13 19:43:00,66.0,53.0,29.98,NNW,342,3.0,-999.0,63,-99.99,,,-99.99,,2013-06-13 23:43:00,
2013-06-13 19:52:00,66.0,53.0,29.99,North,354,2.0,-999.0,63,-99.99,,,-99.99,,2013-06-13 23:52:00,
2013-06-13 20:01:00,66.0,53.0,29.99,NNW,337,3.0,-999.0,64,-99.99,,,-99.99,,2013-06-14 00:01:00,
2013-06-13 20:12:00,66.0,53.0,29.99,NW,315,2.0,-999.0,64,-99.99,,,-99.99,,2013-06-14 00:12:00,
2013-06-13 20:22:00,65.0,53.0,29.99,NW,313,1.0,-999.0,65,-99.99,,,-99.99,,2013-06-14 00:22:00,
2013-06-13 20:34:00,65.0,53.0,29.99,ENE,65,1.0,-999.0,65,-99.99,,,-99.99,,2013-06-14 00:34:00,
2013-06-13 20:43:00,65.0,54.0,29.99,NE,49,1.0,-999.0,67,-99.99,,,-99.99,,2013-06-14 00:43:00,
2013-06-13 20:53:00,64.0,53.0,29.99,WNW,291,1.0,-999.0,68,-99.99,,,-99.99,,2013-06-14 00:53:00,
2013-06-13 21:01:00,64.0,54.0,30.00,ESE,120,1.0,-999.0,70,-99.99,,,-99.99,,2013-06-14 01:01:00,
2013-06-13 21:11:00,64.0,54.0,30.00,NE,40,0.0,-999.0,70,-99.99,,,-99.99,,2013-06-14 01:11:00,
2013-06-13 21:22:00,63.0,54.0,30.00,NE,40,0.0,-999.0,73,-99.99,,,-99.99,,2013-06-14 01:22:00,
2013-06-13 21:32:00,62.0,53.0,30.00,NE,41,0.0,-999.0,73,-99.99,,,-99.99,,2013-06-14 01:32:00,
2013-06-13 21:43:00,62.0,54.0,30.00,SSW,200,0.0,-999.0,75,-99.99,,,-99.99,,2013-06-14 01:43:00,
2013-06-13 21:52:00,61.0,53.0,30.00,SSW,202,0.0,-999.0,76,-99.99,,,-99.99,,2013-06-14 01:52:00,
2013-06-13 22:02:00,61.0,54.0,30.01,SSW,203,0.0,-999.0,77,-99.99,,,-99.99,,2013-06-14 02:02:00,
2013-06-13 22:11:00,60.0,53.0,30.01,SSW,203,0.0,-999.0,78,-99.99,,,-99.99,,2013-06-14 02:11:00,
2013-06-13 22:22:00,60.0,53.0,30.01,SSW,203,0.0,-999.0,79,-99.99,,,-99.99,,2013-06-14 02:22:00,
2013-06-13 22:32:00,60.0,53.0,30.02,SSW,205,0.0,-999.0,79,-99.99,,,-99.99,,2013-06-14 02:32:00,
2013-06-13 22:43:00,60.0,54.0,30.02,SSW,205,0.0,-999.0,80,-99.99,,,-99.99,,2013-06-14 02:43:00,
2013-06-13 22:52:00,59.0,53.0,30.02,SSW,205,0.0,-999.0,81,-99.99,,,-99.99,,2013-06-14 02:52:00,
2013-06-13 23:02:00,59.0,54.0,30.03,SSW,203,0.0,-999.0,82,-99.99,,,-99.99,,2013-06-14 03:02:00,
2013-06-13 23:12:00,59.0,54.0,30.03,SSW,202,0.0,-999.0,82,-99.99,,,-99.99,,2013-06-14 03:12:00,
2013-06-13 23:22:00,58.0,53.0,30.03,SSW,199,0.0,-999.0,83,-99.99,,,-99.99,,2013-06-14 03:22:00,
2013-06-13 23:34:00,58.0,53.0,30.03,SSW,199,0.0,-999.0,84,-99.99,,,-99.99,,2013-06-14 03:34:00,
2013-06-13 23:43:00,58.0,53.0,30.03,SSW,199,0.0,-999.0,84,-99.99,,,-99.99,,2013-06-14 03:43:00,
2013-06-13 23:53:00,58.0,54.0,30.03,SSW,199,0.0,-999.0,85,-99.99,,,-99.99,,2013-06-14 03:53:00,